,,,PA_Meas_PMT16A,,PR_Meas_QMR101_102,,RH_Meas_QMH101,,SR_Meas_QMS101,,TA_Meas_QMH101,,GenWind,,GenWind,
date,time,status,PA,status,PR,status,RH,status,SR,status,TA,status,DirAvg,status,SpdAvg,
2010-04-05, 00:00:04,VALID,1003.4,VALID,0,VALID,88.6781,VALID,0,VALID,26.1355,VALID,346,VALID,0.431641,
2010-04-05, 00:01:04,VALID,1003.4,VALID,0,VALID,88.9909,VALID,0,VALID,26.0985,VALID,346,VALID,0.603516,
2010-04-05, 00:02:04,VALID,1003.33,VALID,0,VALID,89.3418,VALID,0,VALID,26.0401,VALID,348,VALID,0.558984,
2010-04-05, 00:03:04,VALID,1003.32,VALID,0,VALID,89.6393,VALID,0,VALID,26.0206,VALID,356,VALID,0.332031,
2010-04-05, 00:04:04,VALID,1003.29,VALID,0,VALID,89.769,VALID,0,VALID,25.9817,VALID,352,VALID,0.569141,
2010-04-05, 00:05:04,VALID,1003.27,VALID,0,VALID,89.8682,VALID,0,VALID,25.9622,VALID,335,VALID,0.766406,
2010-04-05, 00:06:04,VALID,1003.29,VALID,0,VALID,90.0894,VALID,0.100563,VALID,25.9232,VALID,339,VALID,0.517969,
2010-04-05, 00:07:04,VALID,1003.29,VALID,0,VALID,90.4251,VALID,0,VALID,25.9232,VALID,340,VALID,0.564453,
2010-04-05, 00:08:04,VALID,1003.23,VALID,0,VALID,90.7303,VALID,0,VALID,25.8843,VALID,350,VALID,0.645312,
2010-04-05, 00:09:04,VALID,1003.22,VALID,0,VALID,90.982,VALID,0.100563,VALID,25.8434,VALID,348,VALID,0.45625,
2010-04-05, 00:10:04,VALID,1003.24,VALID,0,VALID,91.2796,VALID,0,VALID,25.8453,VALID,348,VALID,0.483203,
2010-04-05, 00:11:04,VALID,1003.2,VALID,0,VALID,91.4398,VALID,0.100563,VALID,25.7655,VALID,348,VALID,0.526953,
2010-04-05, 00:12:04,VALID,1003.23,VALID,0,VALID,91.7602,VALID,0.100563,VALID,25.7674,VALID,351,VALID,0.648828,
2010-04-05, 00:13:04,VALID,1003.18,VALID,0,VALID,91.8899,VALID,0.100563,VALID,25.748,VALID,350,VALID,0.524219,
2010-04-05, 00:14:04,VALID,1003.19,VALID,0,VALID,92.0424,VALID,0.100563,VALID,25.6876,VALID,1,VALID,1.21836,
2010-04-05, 00:15:04,VALID,1003.2,VALID,0,VALID,92.1798,VALID,0,VALID,25.709,VALID,19,VALID,0.596875,
2010-04-05, 00:16:04,VALID,1003.16,VALID,0,VALID,92.1798,VALID,0,VALID,25.709,VALID,23,VALID,1.0332,
2010-04-05, 00:17:04,VALID,1003.2,VALID,0,VALID,92.1492,VALID,0,VALID,25.7869,VALID,13,VALID,0.959766,
2010-04-05, 00:18:04,VALID,1003.2,VALID,0,VALID,92.0348,VALID,0,VALID,25.8259,VALID,21,VALID,1.14102,
2010-04-05, 00:19:04,VALID,1003.2,VALID,0,VALID,91.7678,VALID,0,VALID,25.8648,VALID,353,VALID,0.754687,
2010-04-05, 00:20:04,VALID,1003.21,VALID,0,VALID,91.455,VALID,0,VALID,25.9252,VALID,6,VALID,0.620313,
2010-04-05, 00:21:04,VALID,1003.21,VALID,0,VALID,91.0812,VALID,0,VALID,25.9427,VALID,7,VALID,0.783984,
2010-04-05, 00:22:04,VALID,1003.23,VALID,0,VALID,90.654,VALID,0,VALID,25.9602,VALID,2,VALID,0.603125,
2010-04-05, 00:23:04,VALID,1003.25,VALID,0,VALID,90.2649,VALID,0,VALID,26.0031,VALID,2,VALID,0.414063,
2010-04-05, 00:24:04,VALID,1003.24,VALID,0,VALID,90.0437,VALID,0,VALID,26.0012,VALID,355,VALID,0.158984,
2010-04-05, 00:25:04,VALID,1003.23,VALID,0,VALID,90.1047,VALID,0,VALID,26.0206,VALID,298,VALID,0.280469,
2010-04-05, 00:26:04,VALID,1003.27,VALID,0,VALID,90.2115,VALID,0,VALID,26.0206,VALID,282,VALID,0.211719,
2010-04-05, 00:27:04,VALID,1003.25,VALID,0,VALID,90.4404,VALID,0,VALID,26.0012,VALID,285,VALID,0.340234,
2010-04-05, 00:28:04,VALID,1003.24,VALID,0,VALID,90.6464,VALID,0,VALID,26.0206,VALID,322,VALID,0.260938,
2010-04-05, 00:29:04,VALID,1003.24,VALID,0,VALID,90.5624,VALID,0,VALID,26.0206,VALID,331,VALID,0.244922,
2010-04-05, 00:30:04,VALID,1003.22,VALID,0,VALID,90.6158,VALID,0,VALID,26.0167,VALID,331,VALID,0.283594,
2010-04-05, 00:31:04,VALID,1003.17,VALID,0,VALID,90.4251,VALID,0.100563,VALID,26.0381,VALID,343,VALID,0.893359,
2010-04-05, 00:32:04,VALID,1003.16,VALID,0,VALID,90.4556,VALID,0,VALID,26.0187,VALID,344,VALID,0.575781,
2010-04-05, 00:33:04,VALID,1003.17,VALID,0,VALID,90.6464,VALID,0.100563,VALID,26.0381,VALID,343,VALID,0.667969,
2010-04-05, 00:34:04,VALID,1003.14,VALID,0,VALID,90.6616,VALID,0.100563,VALID,26.0206,VALID,342,VALID,0.586328,
2010-04-05, 00:35:04,VALID,1003.08,VALID,0,VALID,90.5853,VALID,0.100563,VALID,25.9797,VALID,350,VALID,0.848047,
2010-04-05, 00:36:04,VALID,1003.07,VALID,0,VALID,90.7913,VALID,0.100563,VALID,25.9602,VALID,351,VALID,0.963281,
2010-04-05, 00:37:04,VALID,1003.01,VALID,0,VALID,90.8981,VALID,0.100563,VALID,26.0012,VALID,353,VALID,0.716016,
2010-04-05, 00:38:04,VALID,1003,VALID,0,VALID,91.0354,VALID,0.100563,VALID,25.9797,VALID,7,VALID,0.576563,
2010-04-05, 00:39:04,VALID,1003,VALID,0,VALID,91.1041,VALID,0,VALID,25.9602,VALID,356,VALID,0.337109,
2010-04-05, 00:40:04,VALID,1003.03,VALID,0,VALID,91.1956,VALID,0.100563,VALID,25.9817,VALID,318,VALID,0.514453,
2010-04-05, 00:41:04,VALID,1003.03,VALID,0,VALID,91.333,VALID,0.100563,VALID,25.9602,VALID,336,VALID,0.619141,
2010-04-05, 00:42:04,VALID,1003.02,VALID,0,VALID,91.3787,VALID,0,VALID,25.9427,VALID,343,VALID,0.558203,
2010-04-05, 00:43:04,VALID,1003.02,VALID,0,VALID,91.5847,VALID,0.100563,VALID,25.9408,VALID,354,VALID,0.561328,
2010-04-05, 00:44:04,VALID,1003.01,VALID,0,VALID,91.6305,VALID,0.100563,VALID,25.9018,VALID,353,VALID,0.561719,
2010-04-05, 00:45:04,VALID,1003.01,VALID,0,VALID,91.661,VALID,0,VALID,25.9252,VALID,353,VALID,0.419141,
2010-04-05, 00:46:04,VALID,1003.03,VALID,0,VALID,91.7525,VALID,0,VALID,25.8843,VALID,353,VALID,0.428906,
2010-04-05, 00:47:04,VALID,1003,VALID,0,VALID,91.7754,VALID,0,VALID,25.8843,VALID,353,VALID,0.437109,
2010-04-05, 00:48:04,VALID,1003.01,VALID,0,VALID,91.8212,VALID,0,VALID,25.8648,VALID,353,VALID,0.597656,
2010-04-05, 00:49:04,VALID,1003.01,VALID,0,VALID,91.8594,VALID,0,VALID,25.8648,VALID,339,VALID,0.759375,
2010-04-05, 00:50:04,VALID,1002.99,VALID,0,VALID,91.8365,VALID,0,VALID,25.8843,VALID,344,VALID,0.657812,
2010-04-05, 00:51:04,VALID,1002.98,VALID,0,VALID,91.8594,VALID,0,VALID,25.8843,VALID,351,VALID,0.483203,
2010-04-05, 00:52:04,VALID,1002.97,VALID,0,VALID,91.8899,VALID,0,VALID,25.8648,VALID,344,VALID,0.655469,
2010-04-05, 00:53:04,VALID,1002.96,VALID,0,VALID,91.9433,VALID,0,VALID,25.8668,VALID,350,VALID,0.661719,
2010-04-05, 00:54:04,VALID,1002.94,VALID,0,VALID,91.9967,VALID,0,VALID,25.8668,VALID,343,VALID,0.604688,
2010-04-05, 00:55:04,VALID,1002.93,VALID,0,VALID,92.0272,VALID,0,VALID,25.8259,VALID,352,VALID,0.54375,
2010-04-05, 00:56:04,VALID,1002.91,VALID,0,VALID,92.0348,VALID,0,VALID,25.8453,VALID,354,VALID,0.612109,
2010-04-05, 00:57:04,VALID,1002.93,VALID,0,VALID,92.0958,VALID,0,VALID,25.8259,VALID,352,VALID,1.4375,
2010-04-05, 00:58:04,VALID,1002.89,VALID,0,VALID,92.0958,VALID,0,VALID,25.8668,VALID,358,VALID,0.546094,
2010-04-05, 00:59:04,VALID,1002.89,VALID,0,VALID,92.0043,VALID,0,VALID,25.8453,VALID,345,VALID,0.665234,
2010-04-05, 01:00:04,VALID,1002.85,VALID,0,VALID,91.9738,VALID,0,VALID,25.8278,VALID,344,VALID,0.539453,
2010-04-05, 01:01:04,VALID,1002.84,VALID,0,VALID,91.9967,VALID,0,VALID,25.8083,VALID,344,VALID,0.510938,
2010-04-05, 01:02:04,VALID,1002.84,VALID,0,VALID,92.0653,VALID,0,VALID,25.7674,VALID,358,VALID,0.738281,
2010-04-05, 01:03:04,VALID,1002.85,VALID,0,VALID,92.1569,VALID,0,VALID,25.7674,VALID,356,VALID,0.721484,
2010-04-05, 01:04:04,VALID,1002.86,VALID,0,VALID,92.2179,VALID,0,VALID,25.7285,VALID,351,VALID,0.391406,
2010-04-05, 01:05:04,VALID,1002.85,VALID,0,VALID,92.3171,VALID,0,VALID,25.7285,VALID,348,VALID,0.190234,
2010-04-05, 01:06:04,VALID,1002.87,VALID,0,VALID,92.3934,VALID,0,VALID,25.7304,VALID,344,VALID,0.571875,
2010-04-05, 01:07:04,VALID,1002.9,VALID,0,VALID,92.462,VALID,0,VALID,25.7304,VALID,341,VALID,0.666797,
2010-04-05, 01:08:04,VALID,1002.91,VALID,0,VALID,92.5154,VALID,0,VALID,25.7304,VALID,336,VALID,0.669141,
2010-04-05, 01:09:04,VALID,1002.94,VALID,0,VALID,92.5612,VALID,0,VALID,25.7285,VALID,349,VALID,0.448438,
2010-04-05, 01:10:04,VALID,1002.92,VALID,0,VALID,92.5536,VALID,0,VALID,25.709,VALID,356,VALID,0.583594,
2010-04-05, 01:11:04,VALID,1002.95,VALID,0,VALID,92.6146,VALID,0,VALID,25.6895,VALID,343,VALID,0.621484,
2010-04-05, 01:12:04,VALID,1002.97,VALID,0,VALID,92.5993,VALID,0,VALID,25.6895,VALID,344,VALID,0.524609,
2010-04-05, 01:13:04,VALID,1002.95,VALID,0,VALID,92.6146,VALID,0,VALID,25.67,VALID,344,VALID,0.423828,
2010-04-05, 01:14:04,VALID,1002.97,VALID,0,VALID,92.607,VALID,0,VALID,25.6506,VALID,344,VALID,0.319531,
2010-04-05, 01:15:04,VALID,1002.94,VALID,0,VALID,92.6604,VALID,0,VALID,25.6506,VALID,344,VALID,0.534375,
2010-04-05, 01:16:04,VALID,1002.93,VALID,0,VALID,92.6604,VALID,0,VALID,25.6292,VALID,344,VALID,0.3625,
2010-04-05, 01:17:04,VALID,1002.93,VALID,0,VALID,92.6833,VALID,0,VALID,25.6311,VALID,344,VALID,0.194531,
2010-04-05, 01:18:04,VALID,1002.96,VALID,0,VALID,92.7367,VALID,0,VALID,25.6506,VALID,344,VALID,0,
2010-04-05, 01:19:04,VALID,1002.93,VALID,0,VALID,92.813,VALID,0,VALID,25.6525,VALID,344,VALID,0.13125,
2010-04-05, 01:20:04,VALID,1002.91,VALID,0,VALID,92.8892,VALID,0,VALID,25.633,VALID,352,VALID,0.673828,
2010-04-05, 01:21:04,VALID,1002.89,VALID,0,VALID,92.9884,VALID,0,VALID,25.6116,VALID,355,VALID,0.405078,
2010-04-05, 01:22:04,VALID,1002.87,VALID,0,VALID,92.9961,VALID,0,VALID,25.6116,VALID,346,VALID,0.672266,
2010-04-05, 01:23:04,VALID,1002.87,VALID,0,VALID,93.0952,VALID,0,VALID,25.6116,VALID,344,VALID,0.671484,
2010-04-05, 01:24:04,VALID,1002.84,VALID,0,VALID,93.0876,VALID,0,VALID,25.6116,VALID,334,VALID,0.7125,
2010-04-05, 01:25:04,VALID,1002.84,VALID,0,VALID,93.0418,VALID,0,VALID,25.6116,VALID,335,VALID,0.254687,
2010-04-05, 01:26:04,VALID,1002.83,VALID,0,VALID,92.9503,VALID,0,VALID,25.5727,VALID,335,VALID,0.489062,
2010-04-05, 01:27:04,VALID,1002.79,VALID,0,VALID,92.8511,VALID,0,VALID,25.5337,VALID,347,VALID,0.489062,
2010-04-05, 01:28:04,VALID,1002.79,VALID,0,VALID,92.8206,VALID,0,VALID,25.4753,VALID,347,VALID,0.411328,
2010-04-05, 01:29:04,VALID,1002.77,VALID,0,VALID,92.8892,VALID,0,VALID,25.4169,VALID,347,VALID,0.224609,
2010-04-05, 01:30:04,VALID,1002.74,VALID,0,VALID,93.08,VALID,0,VALID,25.3974,VALID,347,VALID,0.294531,
2010-04-05, 01:31:04,VALID,1002.7,VALID,0,VALID,93.2554,VALID,0,VALID,25.3584,VALID,347,VALID,0.520312,
2010-04-05, 01:32:04,VALID,1002.69,VALID,0,VALID,93.3394,VALID,0,VALID,25.339,VALID,347,VALID,0.455859,
2010-04-05, 01:33:04,VALID,1002.69,VALID,0,VALID,93.6216,VALID,0,VALID,25.3798,VALID,356,VALID,0.664453,
2010-04-05, 01:34:04,VALID,1002.66,VALID,0,VALID,93.8429,VALID,0,VALID,25.3779,VALID,360,VALID,0.628516,
2010-04-05, 01:35:04,VALID,1002.63,VALID,0,VALID,93.8734,VALID,0,VALID,25.3779,VALID,10,VALID,0.498047,
2010-04-05, 01:36:04,VALID,1002.65,VALID,0,VALID,93.9649,VALID,0,VALID,25.4169,VALID,9,VALID,0.607813,
2010-04-05, 01:37:04,VALID,1002.65,VALID,0,VALID,93.9878,VALID,0,VALID,25.4363,VALID,9,VALID,0.295312,
2010-04-05, 01:38:04,VALID,1002.67,VALID,0,VALID,93.9268,VALID,0,VALID,25.4558,VALID,9,VALID,0.571875,
2010-04-05, 01:39:04,VALID,1002.67,VALID,0,VALID,94.0031,VALID,0,VALID,25.5337,VALID,15,VALID,0.965234,
2010-04-05, 01:40:04,VALID,1002.7,VALID,0,VALID,93.9573,VALID,0,VALID,25.5727,VALID,22,VALID,0.584375,
2010-04-05, 01:41:04,VALID,1002.73,VALID,0,VALID,93.7589,VALID,0,VALID,25.6116,VALID,358,VALID,0.632031,
2010-04-05, 01:42:04,VALID,1002.75,VALID,0,VALID,93.553,VALID,0,VALID,25.6311,VALID,6,VALID,0.409375,
2010-04-05, 01:43:04,VALID,1002.77,VALID,0,VALID,93.4004,VALID,0,VALID,25.6097,VALID,6,VALID,0.286328,
2010-04-05, 01:44:04,VALID,1002.8,VALID,0,VALID,93.3241,VALID,0,VALID,25.6311,VALID,6,VALID,0.125781,
2010-04-05, 01:45:04,VALID,1002.81,VALID,0,VALID,93.202,VALID,0,VALID,25.5902,VALID,6,VALID,0.04375,
2010-04-05, 01:46:04,VALID,1002.8,VALID,0,VALID,93.1791,VALID,0,VALID,25.6116,VALID,6,VALID,0.345313,
2010-04-05, 01:47:04,VALID,1002.8,VALID,0,VALID,93.3394,VALID,0,VALID,25.672,VALID,21,VALID,0.590234,
2010-04-05, 01:48:04,VALID,1002.76,VALID,0,VALID,93.2859,VALID,0,VALID,25.67,VALID,1,VALID,0.651953,
2010-04-05, 01:49:04,VALID,1002.76,VALID,0,VALID,93.2325,VALID,0,VALID,25.67,VALID,353,VALID,0.591016,
2010-04-05, 01:50:04,VALID,1002.74,VALID,0,VALID,93.0876,VALID,0,VALID,25.67,VALID,352,VALID,0.519141,
2010-04-05, 01:51:04,VALID,1002.71,VALID,0,VALID,92.9579,VALID,0,VALID,25.6506,VALID,352,VALID,0.475781,
2010-04-05, 01:52:04,VALID,1002.69,VALID,0,VALID,92.9198,VALID,0,VALID,25.6506,VALID,352,VALID,0.639063,
2010-04-05, 01:53:04,VALID,1002.64,VALID,0,VALID,93.0723,VALID,0,VALID,25.6311,VALID,12,VALID,0.652734,
2010-04-05, 01:54:04,VALID,1002.64,VALID,0,VALID,93.0418,VALID,0,VALID,25.6097,VALID,353,VALID,0.467187,
2010-04-05, 01:55:04,VALID,1002.64,VALID,0,VALID,93.0113,VALID,0.100563,VALID,25.6097,VALID,8,VALID,0.437891,
2010-04-05, 01:56:04,VALID,1002.63,VALID,0,VALID,93.0418,VALID,0,VALID,25.6116,VALID,19,VALID,0.261719,
2010-04-05, 01:57:04,VALID,1002.65,VALID,0,VALID,92.9884,VALID,0,VALID,25.6116,VALID,8,VALID,0.483594,
2010-04-05, 01:58:04,VALID,1002.65,VALID,0,VALID,93.0495,VALID,0,VALID,25.5921,VALID,5,VALID,0,
2010-04-05, 01:59:04,VALID,1002.64,VALID,0,VALID,93.2707,VALID,0,VALID,25.6116,VALID,23,VALID,0.417969,
2010-04-05, 02:00:04,VALID,1002.66,VALID,0,VALID,93.2173,VALID,0,VALID,25.6116,VALID,22,VALID,0.483984,
2010-04-05, 02:01:04,VALID,1002.64,VALID,0,VALID,93.202,VALID,0,VALID,25.6116,VALID,347,VALID,0.5875,
2010-04-05, 02:02:04,VALID,1002.64,VALID,0,VALID,93.202,VALID,0,VALID,25.5921,VALID,348,VALID,0.896484,
2010-04-05, 02:03:04,VALID,1002.68,VALID,0,VALID,93.2936,VALID,0,VALID,25.6311,VALID,354,VALID,0.462891,
2010-04-05, 02:04:04,VALID,1002.63,VALID,0,VALID,93.2402,VALID,0,VALID,25.6311,VALID,351,VALID,0.650781,
2010-04-05, 02:05:04,VALID,1002.67,VALID,0,VALID,93.1944,VALID,0,VALID,25.6311,VALID,344,VALID,0.278906,
2010-04-05, 02:06:04,VALID,1002.64,VALID,0,VALID,93.08,VALID,0,VALID,25.6311,VALID,344,VALID,0.305078,
2010-04-05, 02:07:04,VALID,1002.62,VALID,0,VALID,93.1105,VALID,0,VALID,25.6116,VALID,344,VALID,0.286719,
2010-04-05, 02:08:04,VALID,1002.65,VALID,0,VALID,93.1105,VALID,0,VALID,25.6311,VALID,344,VALID,0.0492188,
2010-04-05, 02:09:04,VALID,1002.66,VALID,0,VALID,93.1257,VALID,0,VALID,25.6116,VALID,344,VALID,0,
2010-04-05, 02:10:04,VALID,1002.69,VALID,0,VALID,93.1944,VALID,0,VALID,25.6116,VALID,344,VALID,0.397656,
2010-04-05, 02:11:04,VALID,1002.69,VALID,0,VALID,93.2173,VALID,0,VALID,25.6116,VALID,345,VALID,0.385938,
2010-04-05, 02:12:04,VALID,1002.69,VALID,0,VALID,93.1791,VALID,0,VALID,25.6136,VALID,346,VALID,0.255078,
2010-04-05, 02:13:04,VALID,1002.7,VALID,0,VALID,93.1791,VALID,0,VALID,25.5727,VALID,345,VALID,0.299219,
2010-04-05, 02:14:04,VALID,1002.69,VALID,0,VALID,93.2173,VALID,0,VALID,25.5727,VALID,346,VALID,0.165625,
2010-04-05, 02:15:04,VALID,1002.69,VALID,0,VALID,93.2631,VALID,0,VALID,25.5532,VALID,346,VALID,0.196875,
2010-04-05, 02:16:04,VALID,1002.69,VALID,0,VALID,93.2936,VALID,0,VALID,25.5337,VALID,345,VALID,0.321875,
2010-04-05, 02:17:04,VALID,1002.69,VALID,0,VALID,93.3394,VALID,0,VALID,25.5337,VALID,346,VALID,0.148438,
2010-04-05, 02:18:04,VALID,1002.67,VALID,0,VALID,93.4233,VALID,0,VALID,25.5142,VALID,345,VALID,0.300781,
2010-04-05, 02:19:04,VALID,1002.7,VALID,0,VALID,93.4996,VALID,0,VALID,25.5142,VALID,345,VALID,0.383203,
2010-04-05, 02:20:04,VALID,1002.73,VALID,0,VALID,93.5453,VALID,0,VALID,25.5142,VALID,345,VALID,0.226172,
2010-04-05, 02:21:04,VALID,1002.72,VALID,0,VALID,93.5758,VALID,0,VALID,25.5142,VALID,345,VALID,0.287109,
2010-04-05, 02:22:04,VALID,1002.77,VALID,0,VALID,93.5758,VALID,0,VALID,25.5142,VALID,345,VALID,0.217969,
2010-04-05, 02:23:04,VALID,1002.79,VALID,0,VALID,93.5911,VALID,0,VALID,25.5142,VALID,345,VALID,0,
2010-04-05, 02:24:04,VALID,1002.82,VALID,0,VALID,93.5682,VALID,0,VALID,25.5162,VALID,345,VALID,0.0304688,
2010-04-05, 02:25:04,VALID,1002.82,VALID,0,VALID,93.6064,VALID,0,VALID,25.4967,VALID,345,VALID,0.266797,
2010-04-05, 02:26:04,VALID,1002.83,VALID,0,VALID,93.6445,VALID,0,VALID,25.4948,VALID,345,VALID,0,
2010-04-05, 02:27:04,VALID,1002.82,VALID,0,VALID,93.6903,VALID,0,VALID,25.4753,VALID,345,VALID,0.05625,
2010-04-05, 02:28:04,VALID,1002.82,VALID,0,VALID,93.7284,VALID,0,VALID,25.4753,VALID,345,VALID,0,
2010-04-05, 02:29:04,VALID,1002.82,VALID,0,VALID,93.7055,VALID,0,VALID,25.4558,VALID,345,VALID,0,
2010-04-05, 02:30:04,VALID,1002.8,VALID,0,VALID,93.7055,VALID,0.100563,VALID,25.4344,VALID,345,VALID,0,
2010-04-05, 02:31:04,VALID,1002.8,VALID,0,VALID,93.7437,VALID,0,VALID,25.4149,VALID,345,VALID,0,
2010-04-05, 02:32:04,VALID,1002.78,VALID,0,VALID,93.7971,VALID,0.100563,VALID,25.4149,VALID,345,VALID,0.0132813,
2010-04-05, 02:33:04,VALID,1002.77,VALID,0,VALID,93.8734,VALID,0.100563,VALID,25.3955,VALID,345,VALID,0,
2010-04-05, 02:34:04,VALID,1002.74,VALID,0,VALID,93.942,VALID,0.100563,VALID,25.3955,VALID,345,VALID,0,
2010-04-05, 02:35:04,VALID,1002.72,VALID,0,VALID,93.9802,VALID,0.100563,VALID,25.3974,VALID,345,VALID,0,
2010-04-05, 02:36:04,VALID,1002.71,VALID,0,VALID,93.9954,VALID,0.100563,VALID,25.3565,VALID,345,VALID,0.0242187,
2010-04-05, 02:37:04,VALID,1002.7,VALID,0,VALID,94.0412,VALID,0.100563,VALID,25.337,VALID,345,VALID,0.0703125,
2010-04-05, 02:38:04,VALID,1002.68,VALID,0,VALID,94.0565,VALID,0.100563,VALID,25.3176,VALID,345,VALID,0.339844,
2010-04-05, 02:39:04,VALID,1002.66,VALID,0,VALID,94.1404,VALID,0.100563,VALID,25.2981,VALID,345,VALID,0.298438,
2010-04-05, 02:40:04,VALID,1002.66,VALID,0,VALID,94.209,VALID,0,VALID,25.3,VALID,345,VALID,0.330469,
2010-04-05, 02:41:04,VALID,1002.68,VALID,0,VALID,94.2396,VALID,0,VALID,25.2806,VALID,345,VALID,0.396094,
2010-04-05, 02:42:04,VALID,1002.68,VALID,0,VALID,94.1938,VALID,0,VALID,25.2202,VALID,345,VALID,0.303906,
2010-04-05, 02:43:04,VALID,1002.71,VALID,0,VALID,94.2701,VALID,0,VALID,25.2416,VALID,347,VALID,0.578125,
2010-04-05, 02:44:04,VALID,1002.7,VALID,0,VALID,94.4074,VALID,0,VALID,25.2825,VALID,346,VALID,0.445703,
2010-04-05, 02:45:04,VALID,1002.73,VALID,0,VALID,94.4913,VALID,0.100563,VALID,25.2592,VALID,349,VALID,0.651563,
2010-04-05, 02:46:04,VALID,1002.75,VALID,0,VALID,94.5066,VALID,0.100563,VALID,25.2786,VALID,349,VALID,0.746875,
2010-04-05, 02:47:04,VALID,1002.73,VALID,0,VALID,94.5447,VALID,0.100563,VALID,25.2981,VALID,338,VALID,0.860547,
2010-04-05, 02:48:04,VALID,1002.74,VALID,0,VALID,94.5447,VALID,0,VALID,25.3176,VALID,351,VALID,0.660937,
2010-04-05, 02:49:04,VALID,1002.76,VALID,0,VALID,94.5829,VALID,0,VALID,25.3779,VALID,346,VALID,0.628125,
2010-04-05, 02:50:04,VALID,1002.76,VALID,0,VALID,94.6057,VALID,0,VALID,25.3546,VALID,345,VALID,0.729688,
2010-04-05, 02:51:04,VALID,1002.79,VALID,0,VALID,94.56,VALID,0.100563,VALID,25.3955,VALID,331,VALID,0.474609,
2010-04-05, 02:52:04,VALID,1002.83,VALID,0,VALID,94.5295,VALID,0.100563,VALID,25.4149,VALID,333,VALID,0.373047,
2010-04-05, 02:53:04,VALID,1002.84,VALID,0,VALID,94.4913,VALID,0.201126,VALID,25.4539,VALID,341,VALID,0.452344,
2010-04-05, 02:54:04,VALID,1002.86,VALID,0,VALID,94.4684,VALID,0.100563,VALID,25.4539,VALID,348,VALID,0.781641,
2010-04-05, 02:55:04,VALID,1002.86,VALID,0,VALID,94.3998,VALID,0.100563,VALID,25.4928,VALID,345,VALID,0.305859,
2010-04-05, 02:56:04,VALID,1002.88,VALID,0,VALID,94.3311,VALID,0.100563,VALID,25.4928,VALID,345,VALID,0.187891,
2010-04-05, 02:57:04,VALID,1002.84,VALID,0,VALID,94.2624,VALID,0.100563,VALID,25.5123,VALID,341,VALID,0.654297,
2010-04-05, 02:58:04,VALID,1002.79,VALID,0,VALID,94.1785,VALID,0.100563,VALID,25.5123,VALID,334,VALID,0.641797,
2010-04-05, 02:59:04,VALID,1002.82,VALID,0,VALID,94.0946,VALID,0.100563,VALID,25.5123,VALID,339,VALID,0.607422,
2010-04-05, 03:00:04,VALID,1002.78,VALID,0,VALID,94.0107,VALID,0,VALID,25.5142,VALID,339,VALID,0.539844,
2010-04-05, 03:01:04,VALID,1002.77,VALID,0,VALID,93.942,VALID,0,VALID,25.5357,VALID,339,VALID,0.296094,
2010-04-05, 03:02:04,VALID,1002.8,VALID,0,VALID,93.8886,VALID,0,VALID,25.5142,VALID,346,VALID,0.683203,
2010-04-05, 03:03:04,VALID,1002.85,VALID,0,VALID,93.8734,VALID,0,VALID,25.5142,VALID,349,VALID,0.369922,
2010-04-05, 03:04:04,VALID,1002.84,VALID,0,VALID,93.8123,VALID,0,VALID,25.5357,VALID,349,VALID,0.0292969,
2010-04-05, 03:05:04,VALID,1002.88,VALID,0,VALID,93.7971,VALID,0,VALID,25.5162,VALID,357,VALID,0.253125,
2010-04-05, 03:06:04,VALID,1002.92,VALID,0,VALID,93.8047,VALID,0,VALID,25.5162,VALID,357,VALID,0.3625,
2010-04-05, 03:07:04,VALID,1002.91,VALID,0,VALID,93.7895,VALID,0,VALID,25.4948,VALID,357,VALID,0.4375,
2010-04-05, 03:08:04,VALID,1002.91,VALID,0,VALID,93.7895,VALID,0,VALID,25.5162,VALID,25,VALID,0.678516,
2010-04-05, 03:09:04,VALID,1002.91,VALID,0,VALID,93.7666,VALID,0,VALID,25.4948,VALID,31,VALID,0.445703,
2010-04-05, 03:10:04,VALID,1002.92,VALID,0,VALID,93.7666,VALID,0,VALID,25.5142,VALID,31,VALID,0.2875,
2010-04-05, 03:11:04,VALID,1002.91,VALID,0,VALID,93.7589,VALID,0,VALID,25.4948,VALID,31,VALID,0.546875,
2010-04-05, 03:12:04,VALID,1002.91,VALID,0,VALID,93.7589,VALID,0,VALID,25.4753,VALID,31,VALID,0.325,
2010-04-05, 03:13:04,VALID,1002.91,VALID,0,VALID,93.7284,VALID,0,VALID,25.4948,VALID,29,VALID,0.3875,
2010-04-05, 03:14:04,VALID,1002.91,VALID,0,VALID,93.6903,VALID,0,VALID,25.4753,VALID,28,VALID,0.180859,
2010-04-05, 03:15:04,VALID,1002.9,VALID,0,VALID,93.6445,VALID,0,VALID,25.4558,VALID,28,VALID,0.198047,
2010-04-05, 03:16:04,VALID,1002.88,VALID,0,VALID,93.6445,VALID,0,VALID,25.4558,VALID,28,VALID,0.00195313,
2010-04-05, 03:17:04,VALID,1002.92,VALID,0,VALID,93.6674,VALID,0,VALID,25.4149,VALID,28,VALID,0.0445312,
2010-04-05, 03:18:04,VALID,1002.89,VALID,0,VALID,93.6903,VALID,0,VALID,25.4169,VALID,333,VALID,0.298828,
2010-04-05, 03:19:04,VALID,1002.94,VALID,0,VALID,93.7055,VALID,0.100563,VALID,25.4169,VALID,333,VALID,0,
2010-04-05, 03:20:04,VALID,1002.96,VALID,0,VALID,93.6903,VALID,0,VALID,25.376,VALID,333,VALID,0.00390625,
2010-04-05, 03:21:04,VALID,1002.96,VALID,0,VALID,93.7208,VALID,0,VALID,25.3779,VALID,333,VALID,0.0703125,
2010-04-05, 03:22:04,VALID,1002.95,VALID,0,VALID,93.7971,VALID,0,VALID,25.3779,VALID,333,VALID,0,
2010-04-05, 03:23:04,VALID,1002.96,VALID,0,VALID,93.8734,VALID,0,VALID,25.3779,VALID,333,VALID,0,
2010-04-05, 03:24:04,VALID,1002.94,VALID,0,VALID,93.9268,VALID,0,VALID,25.3176,VALID,333,VALID,0.0726563,
2010-04-05, 03:25:04,VALID,1002.93,VALID,0,VALID,93.9725,VALID,0,VALID,25.339,VALID,333,VALID,0,
2010-04-05, 03:26:04,VALID,1002.91,VALID,0,VALID,94.0107,VALID,0,VALID,25.3195,VALID,333,VALID,0,
2010-04-05, 03:27:04,VALID,1002.91,VALID,0,VALID,94.087,VALID,0,VALID,25.339,VALID,333,VALID,0.165625,
2010-04-05, 03:28:04,VALID,1002.94,VALID,0,VALID,94.1022,VALID,0,VALID,25.2981,VALID,333,VALID,0.0363281,
2010-04-05, 03:29:04,VALID,1002.94,VALID,0,VALID,94.1251,VALID,0.100563,VALID,25.2786,VALID,333,VALID,0,
2010-04-05, 03:30:04,VALID,1002.94,VALID,0,VALID,94.1556,VALID,0.100563,VALID,25.3,VALID,325,VALID,0.387109,
2010-04-05, 03:31:04,VALID,1002.95,VALID,0,VALID,94.2014,VALID,0,VALID,25.2786,VALID,321,VALID,0.253125,
2010-04-05, 03:32:04,VALID,1002.96,VALID,0,VALID,94.2701,VALID,0,VALID,25.3,VALID,321,VALID,0.0128906,
2010-04-05, 03:33:04,VALID,1002.98,VALID,0,VALID,94.2548,VALID,0,VALID,25.2592,VALID,321,VALID,0.0359375,
2010-04-05, 03:34:04,VALID,1003,VALID,0,VALID,94.2243,VALID,0,VALID,25.2611,VALID,321,VALID,0.257031,
2010-04-05, 03:35:04,VALID,1003.03,VALID,0,VALID,94.148,VALID,0,VALID,25.2221,VALID,321,VALID,0.145703,
2010-04-05, 03:36:04,VALID,1003.06,VALID,0,VALID,94.1175,VALID,0,VALID,25.1832,VALID,321,VALID,0.0601562,
2010-04-05, 03:37:04,VALID,1003.09,VALID,0,VALID,94.1251,VALID,0,VALID,25.1442,VALID,321,VALID,0.00742187,
2010-04-05, 03:38:04,VALID,1003.13,VALID,0,VALID,94.1251,VALID,0,VALID,25.1053,VALID,321,VALID,0.241016,
2010-04-05, 03:39:04,VALID,1003.11,VALID,0,VALID,94.1938,VALID,0,VALID,25.0858,VALID,321,VALID,0.046875,
2010-04-05, 03:40:04,VALID,1003.13,VALID,0,VALID,94.2777,VALID,0,VALID,25.0663,VALID,321,VALID,0.160156,
2010-04-05, 03:41:04,VALID,1003.13,VALID,0,VALID,94.3692,VALID,0,VALID,25.0469,VALID,321,VALID,0.0984375,
2010-04-05, 03:42:04,VALID,1003.15,VALID,0,VALID,94.4303,VALID,0,VALID,25.0079,VALID,321,VALID,0.329688,
2010-04-05, 03:43:04,VALID,1003.15,VALID,0,VALID,94.4989,VALID,0,VALID,24.9476,VALID,321,VALID,0.258594,